Flag for U.S.A. Weather past 2 weeks in Bryan – College Station, Texas, U.S.A.

Now
70 °F

Clear.


Feels Like: 75 °F
Forecast: 61 / 85 °F
Wind: 5 mph from Southeast

Location: Easterwood Field

Current Time: Oct 24, 2014 at 10:58:05 PM

Latest Report: Oct 24, 2014 at 9:53 PM


Visibility: 10 mi

Pressure: 30.12 "Hg

Humidity: 66%

Dew point: 58 °F

Location of Bryan – College StationLocation

Historic Weather in Bryan – College Station — Graph

°F

Bryan – College Station temperature yesterday

Maximum temperature yesterday: 80 °F (at 3:53 PM)
Minimum temperature yesterday: 64 °F (at 5:53 AM)
Average temperature yesterday: 70 °F

Past Weeks' High & Low Weather Summary

 TemperatureHumidityPressure
High90 °F (Oct 10, 3:53 PM)97% (Oct 10, 3:53 AM)30.18 "Hg (Oct 10, 3:53 AM)
Low52 °F (Oct 14, 5:53 AM)26% (Oct 14, 4:53 PM)29.66 "Hg (Oct 13, 4:53 AM)
Average70 °F70%29.99 "Hg
* Reported Oct 9 9:53 PM — Oct 24 9:53 PM, Bryan – College Station, Weather by CustomWeather, © 2014

Note: Actual official high and low records may vary slightly from our data, if they occured in-between our weather recording intervals... More about our weather records

Advertising

Bryan – College Station weather history for previous 24 hours

 ConditionsComfort  
Time TempWeatherWind HumidityBarometerVisibility
9:53 PM
Oct 24
70 °FClear.5 mph66%30.12 "Hg10 mi
8:53 PM69 °FClear.No wind70%30.11 "Hg10 mi
7:53 PM72 °FClear.No wind64%30.10 "Hg10 mi
6:53 PM76 °FSunny.3 mph54%30.08 "Hg10 mi
5:53 PM80 °FSunny.6 mph45%30.08 "Hg10 mi
4:53 PM82 °FSunny.No wind41%30.08 "Hg10 mi
3:53 PM80 °FSunny.No wind42%30.08 "Hg9 mi
2:53 PM80 °FSunny.No wind42%30.10 "Hg10 mi
1:53 PM78 °FSunny.No wind43%30.12 "Hg10 mi
12:53 PM76 °FSunny.3 mph45%30.16 "Hg10 mi
11:53 AM72 °FScattered clouds.No wind53%30.18 "Hg10 mi
10:53 AM68 °FSunny.No wind61%30.18 "Hg10 mi
9:53 AM64 °FSunny.6 mph70%30.18 "Hg10 mi
8:53 AM61 °FMostly cloudy.5 mph75%30.17 "Hg10 mi
7:53 AM58 °FClear.No wind87%30.15 "Hg10 mi
6:53 AM59 °FClear.No wind84%30.13 "Hg10 mi
5:53 AM60 °FClear.No wind80%30.12 "Hg10 mi
4:53 AM60 °FClear.No wind80%30.11 "Hg10 mi
3:53 AM61 °FPassing clouds.5 mph78%30.11 "Hg10 mi
2:53 AM62 °FClear.5 mph73%30.11 "Hg10 mi
1:53 AM63 °FPassing clouds.3 mph73%30.12 "Hg10 mi
12:53 AM64 °FClear.5 mph70%30.10 "Hg10 mi
11:53 PM
Oct 23
64 °FClear.6 mph70%30.10 "Hg10 mi
10:53 PM66 °FClear.7 mph65%30.10 "Hg10 mi
Weather by CustomWeather, © 2014

See weather overviewHow to use our weather pages